Regional Weather Roundup
Issued by NWS

Home | Current Version | Previous Version | Text Only | Print | Product List | Glossary On
Versions: 1 2 3 4 5 6 7 8 9 10 11 12 13 14 15 16 17 18 19 20 21 22 23 24 25 26 27 28 29 30 31 32 33 34 35 36 37 38 39 40 41 42 43 44 45 46 47 48 49 50
000
ASUS46 KPQR 220610
RWROR

OREGON REGIONAL WEATHER ROUNDUP
NATIONAL WEATHER SERVICE PORTLAND OR
1100 PM PDT TUE OCT 21 2014

NOTE: "FAIR" INDICATES FEW OR NO CLOUDS BELOW 12,000 FEET WITH
NO SIGNIFICANT WEATHER AND/OR OBSTRUCTIONS TO VISIBILITY.

ORZ001>013-220700-
NORTHWEST OREGON


CITY           SKY/WX    TMP DP  RH WIND       PRES   REMARKS
ASTORIA        LGT RAIN  57  51  80 S10       29.73F
6HR MIN TEMP:  56; 6HR MAX TEMP:  61; 6HR PCP:  0.03;

NEWPORT        DRIZZLE   55  52  88 S12G23    29.84F
PORTLAND       LGT RAIN  57  51  80 E12       29.87S
6HR MIN TEMP:  57; 6HR MAX TEMP:  61; 6HR PCP:  0.01;

VANCOUVER WA   LGT RAIN  57  50  77 E10       29.86S
6HR MIN TEMP:  57; 6HR MAX TEMP:  60; 6HR PCP: TRACE;

SCAPPOOSE      LGT RAIN  55  51  86 SW5       29.84F
6HR MIN TEMP:  55; 6HR MAX TEMP:  59; 6HR PCP:  0.03;

HILLSBORO      LGT RAIN  56  49  77 S10       29.85S
6HR MIN TEMP:  56; 6HR MAX TEMP:  59; 6HR PCP: TRACE;

AURORA         LGT RAIN  58  47  66 S9        29.87S
6HR MIN TEMP:  57; 6HR MAX TEMP:  61; 6HR PCP: TRACE;

MCMINNVILLE    CLOUDY    58  50  75 S14G25    29.86F
6HR MIN TEMP:  57; 6HR MAX TEMP:  60; 6HR PCP: TRACE;

SALEM          LGT RAIN  56  49  77 S10       29.85F
6HR MIN TEMP:  56; 6HR MAX TEMP:  61; 6HR PCP:  0.07;

CORVALLIS      CLOUDY    55  52  88 S9        29.89F
EUGENE         CLOUDY    55  50  83 S9        29.89F
6HR MIN TEMP:  55; 6HR MAX TEMP:  62; 6HR PCP:  0.02;

$$

ORZ021-028-220700-
SOUTHWEST OREGON


CITY           SKY/WX    TMP DP  RH WIND       PRES   REMARKS
NORTH BEND     CLOUDY    57  54  88 SE9       29.89S
6HR MIN TEMP:  55; 6HR MAX TEMP:  63; 6HR PCP:  0.01;

BROOKINGS      LGT RAIN  56  52  86 SE5       30.00S
ROSEBURG       CLOUDY    58  49  72 VRB3      29.93S
6HR MIN TEMP:  57; 6HR MAX TEMP:  64; 6HR PCP:  0.03;

SEXTON SUMMIT  CLOUDY    44  42  93 S17G24    29.98S
6HR MIN TEMP:  43; 6HR MAX TEMP:  46; 6HR PCP:  0.03;

MEDFORD        CLOUDY    54  49  83 N3        29.99F
6HR MIN TEMP:  53; 6HR MAX TEMP:  64; 6HR PCP: TRACE;

$$

ORZ009-041-220700-
COLUMBIA GORGE


CITY           SKY/WX    TMP DP  RH WIND       PRES   REMARKS
TROUTDALE      LGT RAIN  56  51  84 E6        29.87S
6HR MIN TEMP:  55; 6HR MAX TEMP:  60; 6HR PCP:  0.01;

THE DALLES     MOCLDY    51  46  83 CALM      29.92S
6HR MIN TEMP:  50; 6HR MAX TEMP:  63;

$$

ORZ029>031-042>050-061>064-220700-
EASTERN OREGON


CITY           SKY/WX    TMP DP  RH WIND       PRES   REMARKS
REDMOND        MOCLDY    46  35  65 S8        29.96F
6HR MIN TEMP:  43; 6HR MAX TEMP:  56;

BEND           MOCLDY    45  34  65 S3        29.99S
KLAMATH FALLS  MOCLDY    40  36  86 SE3       30.06R
6HR MIN TEMP:  39; 6HR MAX TEMP:  51;

LAKEVIEW       PTCLDY    27  21  80 CALM      30.10R
HERMISTON      PTCLDY    45  40  82 E5        29.93F
6HR MIN TEMP:  45; 6HR MAX TEMP:  64;

PENDLETON      PTCLDY    47  38  71 SE6       29.94F
6HR MIN TEMP:  46; 6HR MAX TEMP:  62;

JOHN DAY       CLEAR     42  35  76 E8        30.03S
MEACHAM        PTCLDY    30  29  96 CALM      30.00S
6HR MIN TEMP:  30; 6HR MAX TEMP:  50;

LA GRANDE      PTCLDY    36  25  64 CALM      30.01R
6HR MIN TEMP:  36; 6HR MAX TEMP:  55;

BAKER CITY     CLEAR     37  29  72 SE7       30.03R WCI  32
6HR MIN TEMP:  32; 6HR MAX TEMP:  52; 6HR PCP: TRACE;

BURNS          PTCLDY    28  24  85 CALM      30.07R
6HR MIN TEMP:  27; 6HR MAX TEMP:  53;

ROME             N/A     39  30  70 VRB5      30.07R
6HR MIN TEMP:  38; 6HR MAX TEMP:  56;

ONTARIO        CLEAR     43  36  76 CALM      30.06R
6HR MIN TEMP:  43; 6HR MAX TEMP:  63;

$$



USA.gov is the U.S. government's official web portal to all federal, state and local government web resources and services.